CW6881 Weather Reports


time (UTC)temp
C
wind
direction
speed
KPH
gust
KPH
rain 1hr
cm
rain 24hr
cm
rain mn
cm
humidity
%
barometer
mb
20260507095017 10 135 1.6 3.2 0.00 0.00 0.00 85 1021.1
20260507094017 10 135 1.6 6.4 0.00 0.00 0.00 85 1021.0
20260507093017 10 0.0 1.6 0.00 0.00 0.00 85 1021.0
20260507092017 10 158 1.6 6.4 0.00 0.00 0.00 86 1021.0
20260507091017 10 158 1.6 8.0 0.00 0.00 0.00 86 1021.0
20260507090017 10 158 1.6 6.4 0.00 0.00 0.00 86 1021.0
20260507085017 10 158 3.2 6.4 0.00 0.00 0.00 86 1021.1
20260507084017 10 158 1.6 6.4 0.00 0.00 0.00 86 1021.1
20260507083037 10 158 1.6 6.4 0.00 0.00 0.00 86 1021.1
20260507082037 10 158 3.2 9.7 0.00 0.00 0.00 85 1021.1
20260507081017 10 158 3.2 8.0 0.00 0.00 0.00 85 1021.1
20260507080017 10 0.0 3.2 0.00 0.00 0.00 85 1021.2
20260507075017 10 0.0 3.2 0.00 0.00 0.00 85 1021.2
20260507074017 10 0.0 0.0 0.00 0.00 0.00 85 1021.2
20260507073017 10 225 1.6 3.2 0.00 0.00 0.00 85 1021.2
20260507072017 10 203 3.2 8.0 0.00 0.00 0.00 85 1021.1
20260507071017 10 203 3.2 6.4 0.00 0.00 0.00 85 1021.1
20260507070017 10 203 3.2 8.0 0.00 0.00 0.00 84 1021.1
20260507065037 10 203 1.6 3.2 0.00 0.00 0.00 84 1021.2
20260507064017 10 203 1.6 3.2 0.00 0.00 0.00 84 1021.0
20260507063037 10 203 1.6 4.8 0.00 0.00 0.00 84 1021.1
20260507062017 10 203 1.6 6.4 0.00 0.00 0.00 84 1021.1
20260507061017 10 203 3.2 4.8 0.00 0.00 0.00 85 1021.0
20260507060017 11 180 4.8 9.7 0.00 0.00 0.00 85 1021.1
20260507055019 11 203 4.8 12.9 0.00 0.00 0.00 85 1021.1
20260507054017 11 203 1.6 6.4 0.00 0.00 0.00 85 1021.1
20260507053017 11 225 4.8 9.7 0.00 0.00 0.00 86 1021.1
20260507052017 11 203 4.8 9.7 0.00 0.00 0.00 85 1021.1
20260507051037 11 203 3.2 6.4 0.00 0.00 0.00 85 1021.2
20260507050017 11 203 3.2 9.7 0.00 0.00 0.00 85 1021.2
20260507045017 11 203 4.8 9.7 0.00 0.00 0.00 85 1021.2
20260507044017 12 203 3.2 9.7 0.00 0.00 0.00 84 1021.1
20260507043017 12 180 4.8 9.7 0.00 0.00 0.00 83 1021.1
20260507042017 12 203 4.8 11.3 0.00 0.00 0.00 83 1021.0
20260507041017 12 203 1.6 6.4 0.00 0.00 0.00 82 1021.0
20260507040017 12 225 1.6 6.4 0.00 0.00 0.00 82 1021.0
20260507035017 12 0.0 3.2 0.00 0.00 0.00 82 1020.9
20260507034017 12 180 1.6 3.2 0.00 0.00 0.00 82 1020.8
20260507033517 12 203 1.6 6.4 0.00 0.00 0.00 81 1020.7
20260507032517 12 0.0 3.2 0.00 0.00 0.00 81 1020.7
20260507031537 12 203 1.6 6.4 0.00 0.00 0.00 81 1020.6
20260507030517 12 203 1.6 8.0 0.00 0.00 0.00 81 1020.6
20260507025517 12 0.0 4.8 0.00 0.00 0.00 80 1020.4
20260507024537 13 203 3.2 8.0 0.00 0.00 0.00 80 1020.4
20260507023517 13 203 1.6 4.8 0.00 0.00 0.00 80 1020.4
20260507022537 13 203 1.6 6.4 0.00 0.00 0.00 79 1020.3
20260507021517 13 203 3.2 11.3 0.00 0.00 0.00 79 1020.3
20260507020517 13 225 3.2 9.7 0.00 0.00 0.00 78 1020.4
20260507015517 13 203 3.2 9.7 0.00 0.00 0.00 78 1020.3
20260507014517 13 225 4.8 16.1 0.00 0.00 0.00 77 1020.3
20260507013518 13 203 3.2 11.3 0.00 0.00 0.00 78 1020.3
20260507012517 13 203 1.6 8.0 0.00 0.00 0.00 78 1020.4
20260507011517 13 203 4.8 12.9 0.00 0.00 0.00 78 1020.3
20260507010517 14 203 4.8 11.3 0.00 0.00 0.00 77 1020.4
20260507005517 14 225 3.2 11.3 0.00 0.00 0.00 77 1020.5
20260507004517 14 203 1.6 4.8 0.00 0.00 0.00 77 1020.5
20260507003517 14 203 4.8 16.1 0.00 0.00 0.00 77 1020.5
20260507002517 14 203 3.2 11.3 0.00 0.00 0.00 76 1020.4
20260507001517 14 203 3.2 11.3 0.00 0.00 0.00 76 1020.4
20260507000517 14 203 1.6 4.8 0.00 0.00 0.00 75 1020.4
20260506235517 15 225 4.8 16.1 0.00 0.00 0.00 75 1020.4
20260506234517 15 203 3.2 9.7 0.00 0.00 0.00 76 1020.4
20260506233537 15 203 6.4 12.9 0.00 0.00 0.00 74 1020.4
20260506232517 15 225 1.6 6.4 0.00 0.00 0.00 75 1020.5
20260506231517 15 225 4.8 12.9 0.00 0.00 0.00 73 1020.5
20260506230517 15 203 6.4 17.7 0.00 0.00 0.00 74 1020.5
20260506225517 15 203 6.4 12.9 0.00 0.00 0.00 75 1020.5
20260506224517 15 203 4.8 12.9 0.00 0.00 0.00 74 1020.6
20260506223517 15 203 4.8 9.7 0.00 0.00 0.00 75 1020.6
20260506222517 15 203 9.7 20.9 0.00 0.00 0.00 73 1020.7
20260506221517 15 225 4.8 12.9 0.00 0.00 0.00 76 1020.7
20260506220517 14 203 3.2 11.3 0.00 0.00 0.00 76 1020.8
20260506215517 14 203 3.2 8.0 0.00 0.00 0.00 77 1020.8
20260506214517 14 203 3.2 8.0 0.00 0.00 0.00 76 1020.9
20260506213517 14 203 1.6 6.4 0.00 0.00 0.00 77 1020.8
20260506212535 14 203 1.6 4.8 0.00 0.00 0.00 78 1020.8
20260506211537 13 203 3.2 11.3 0.00 0.00 0.00 78 1020.8
20260506210517 13 225 1.6 9.7 0.00 0.00 0.00 78 1020.8
20260506205517 13 225 4.8 11.3 0.00 0.00 0.00 77 1020.7
20260506204537 13 203 3.2 11.3 0.00 0.00 0.00 77 1020.8
20260506203517 13 203 1.6 6.4 0.00 0.00 0.00 79 1020.6
20260506202517 13 203 1.6 6.4 0.00 0.00 0.00 77 1020.6
20260506201535 13 248 3.2 9.7 0.00 0.00 0.00 79 1020.5
20260506200517 13 203 4.8 17.7 0.00 0.00 0.00 78 1020.5
20260506195517 13 203 3.2 8.0 0.00 0.00 0.00 79 1020.5
20260506194517 13 203 4.8 16.1 0.00 0.00 0.00 79 1020.4
20260506193517 13 203 4.8 12.9 0.00 0.00 0.00 80 1020.3
20260506192557 13 203 4.8 17.7 0.00 0.00 0.00 81 1020.3
20260506191517 13 203 3.2 9.7 0.00 0.00 0.00 82 1020.3
20260506190557 13 203 3.2 9.7 0.00 0.00 0.00 82 1020.4
20260506185517 13 203 3.2 9.7 0.00 0.00 0.00 82 1020.4
20260506184517 13 203 3.2 8.0 0.00 0.00 0.00 82 1020.4
20260506183537 13 225 1.6 8.0 0.00 0.00 0.00 82 1020.6
20260506182517 13 203 1.6 8.0 0.00 0.00 0.00 82 1020.4
20260506181517 13 0.0 4.8 0.00 0.00 0.00 84 1020.1
20260506180517 12 203 1.6 8.0 0.00 0.00 0.00 84 1020.1
20260506175517 12 203 3.2 8.0 0.00 0.00 0.00 85 1020.1
20260506174557 12 158 3.2 9.7 0.00 0.00 0.00 84 1020.2
20260506173537 12 203 4.8 9.7 0.00 0.00 0.00 84 1020.1
20260506172517 12 180 3.2 6.4 0.00 0.00 0.00 84 1020.2
20260506171517 12 203 3.2 11.3 0.00 0.00 0.00 85 1020.2
20260506170517 12 180 3.2 8.0 0.00 0.00 0.00 85 1020.1
20260506165517 12 225 4.8 11.3 0.00 0.00 0.00 85 1020.2
20260506164517 12 225 3.2 6.4 0.00 0.00 0.00 85 1020.1
20260506163517 12 225 3.2 8.0 0.00 0.00 0.00 85 1019.8
20260506162517 12 225 4.8 9.7 0.00 0.00 0.00 85 1019.7
20260506161517 11 203 3.2 4.8 0.00 0.00 0.00 85 1019.6
20260506160517 11 203 1.6 4.8 0.00 0.00 0.00 85 1019.7
20260506155517 11 180 3.2 8.0 0.00 0.00 0.00 85 1020.0
20260506154517 11 225 1.6 6.4 0.00 0.00 0.00 85 1020.1
20260506153517 11 203 1.6 4.8 0.00 0.00 0.00 85 1020.1
20260506152517 11 180 1.6 6.4 0.00 0.00 0.00 85 1019.7
20260506151517 11 135 1.6 6.4 0.00 0.00 0.00 85 1019.7
20260506150517 11 203 1.6 3.2 0.00 0.00 0.00 86 1019.8
20260506145517 11 0.0 3.2 0.00 0.00 0.00 86 1019.9
20260506144517 11 203 1.6 4.8 0.00 0.00 0.00 86 1019.9
20260506143517 11 203 1.6 4.8 0.00 0.00 0.00 86 1019.6
20260506142517 11 135 1.6 6.4 0.00 0.00 0.00 85 1019.3
20260506141515 11 203 3.2 6.4 0.00 0.00 0.00 85 1019.6
20260506140555 11 203 3.2 8.0 0.00 0.00 0.00 85 1019.6
20260506135515 11 180 1.6 4.8 0.00 0.00 0.00 85 1019.6
20260506134515 11 203 3.2 8.0 0.00 0.00 0.00 85 1019.4
20260506133535 11 203 1.6 4.8 0.00 0.00 0.00 85 1019.3
20260506132515 11 203 3.2 6.4 0.00 0.00 0.00 86 1019.3
20260506131515 11 203 1.6 4.8 0.00 0.00 0.00 85 1019.0
20260506130544 11 0.0 0.0 0.00 0.00 0.00 85 1019.1
20260506130015 11 203 1.6 4.8 0.00 0.00 0.00 85 1018.9
20260506125015 11 203 1.6 3.2 0.00 0.00 0.00 85 1019.0
20260506124035 11 180 1.6 3.2 0.00 0.00 0.00 85 1019.0
20260506123015 11 180 1.6 6.4 0.00 0.00 0.00 85 1018.9
20260506122015 11 180 1.6 4.8 0.00 0.00 0.00 85 1018.9
20260506121016 11 180 3.2 4.8 0.00 0.00 0.00 85 1018.9
20260506120015 11 158 1.6 6.4 0.00 0.00 0.00 85 1018.8
20260506115035 11 158 1.6 8.0 0.00 0.00 0.00 85 1018.5
20260506114035 11 0.0 3.2 0.00 0.00 0.00 86 1018.5
20260506113015 11 0.0 1.6 0.00 0.00 0.00 86 1018.7
20260506112035 11 203 1.6 4.8 0.00 0.00 0.00 86 1018.7
20260506111015 11 203 3.2 8.0 0.00 0.00 0.00 86 1018.6
20260506110016 11 180 1.6 6.4 0.00 0.00 0.00 86 1018.5
20260506105015 11 203 3.2 6.4 0.00 0.00 0.00 86 1018.4
20260506104015 11 225 3.2 8.0 0.00 0.00 0.00 85 1018.4
20260506103015 11 180 1.6 4.8 0.00 0.00 0.00 85 1018.2
20260506102035 11 203 1.6 6.4 0.00 0.00 0.00 85 1018.2
20260506101015 11 203 1.6 8.0 0.00 0.00 0.00 85 1018.0
20260506100016 11 203 1.6 6.4 0.00 0.00 0.00 85 1017.9